Flag for Germany Weather past 2 weeks in Sankt Ingbert, Saarland, Germany

Now
69 °F

Passing clouds.


Feels Like: 69 °F
Forecast: 57 / 91 °F
Wind: 6 mph from West

Location: Saarbruecken / Ensheim

Current Time: Jul 6, 2015 at 2:05:05 AM

Latest Report: Jul 6, 2015 at 1:00 AM


Visibility: 19 mi

Pressure: 30.10 "Hg

Humidity: 75%

Dew point: 61 °F

Location of Sankt IngbertLocation

Historic Weather in Sankt Ingbert — Graph

°F

Sankt Ingbert temperature yesterday

Maximum temperature yesterday: 96 °F (at 5:00 PM)
Minimum temperature yesterday: 72 °F (at 3:00 AM)
Average temperature yesterday: 84 °F

Past Weeks' High & Low Weather Summary

 TemperatureHumidityPressure
High97 °F (Jul 4, 5:00 PM)99% (Jun 22, 2:00 AM)30.23 "Hg (Jun 22, 2:00 AM)
Low43 °F (Jun 24, 5:00 AM)25% (Jul 5, 5:00 PM)29.76 "Hg (Jun 22, 11:00 PM)
Average69 °F63%30.08 "Hg
* Reported Jun 21 1:00 AM — Jul 6 1:00 AM, Sankt Ingbert, Weather by CustomWeather, © 2015

Note: Actual official high and low records may vary slightly from our data, if they occured in-between our weather recording intervals... More about our weather records

Advertising

Sankt Ingbert weather history for previous 24 hours

 ConditionsComfort  
Time TempWeatherWind HumidityBarometerVisibility
1:00 AM
Mon, Jul 6
69 °FPassing clouds.6 mph75%30.10 "Hg19 mi
12:00 AM72 °FPassing clouds.6 mph70%30.04 "Hg19 mi
11:00 PM
Sun, Jul 5
74 °FPassing clouds.7 mph69%30.01 "Hg19 mi
10:00 PM81 °FPassing clouds.6 mph58%29.95 "Hg22 mi
9:00 PM84 °FPartly sunny.8 mph48%29.92 "Hg22 mi
8:00 PM87 °FThunderstorms. Partly sunny.8 mph41%29.87 "Hg22 mi
7:00 PM91 °FThunderstorms. Partly sunny.3 mph30%29.85 "Hg22 mi
6:00 PM96 °FExtremely hot.5 mph26%29.84 "HgN/A
5:00 PM96 °FScattered clouds.6 mph25%29.86 "Hg28 mi
4:00 PM96 °FScattered clouds.6 mph26%29.89 "Hg28 mi
3:00 PM94 °FPartly sunny.6 mph34%29.91 "Hg25 mi
2:00 PM92 °FPartly sunny.6 mph39%29.93 "Hg25 mi
1:00 PM94 °FPassing clouds.6 mph34%29.93 "Hg25 mi
12:00 PM91 °FPassing clouds.6 mph38%29.95 "Hg19 mi
11:00 AM88 °FPassing clouds.2 mph47%29.97 "Hg19 mi
10:00 AM83 °FPassing clouds.5 mph52%30.00 "Hg19 mi
9:00 AM81 °FPassing clouds.2 mph58%30.00 "Hg16 mi
8:00 AM78 °FScattered clouds.2 mph61%30.01 "Hg22 mi
7:00 AM74 °FScattered clouds.3 mph68%30.02 "Hg22 mi
5:00 AM74 °FPassing clouds.3 mph69%30.04 "Hg16 mi
4:00 AM73 °FPassing clouds.1 mph68%30.05 "Hg16 mi
3:00 AM72 °FPassing clouds.No wind70%30.06 "Hg16 mi
2:00 AM74 °FPassing clouds.1 mph64%30.06 "Hg19 mi
Weather by CustomWeather, © 2015

See weather overviewHow to use our weather pages